Temp
-12 -12 -13 -13 -13 -14 -14 -14 -14 -14 -14 -13 -13 -13 -13 -13 -13 -13 -13 -12 -12 -12 -12 -12 -12 -12 -11 -11 -11 -11 -11 -12 -11 -11 -10 -10 -10 -11 -10 -10 -10 -10 -10
-12 -12 -13 -14 -14 -13 -14 -14 -14 -14 -14 -14 -13 -13 -13 -13 -13 -13 -13 -13 -12 -12 -12 -12 -12 -11 -11 -11 -11 -11 -11 -11 -11 -11 -11 -11 -11 -11 -11 -11 -11 -11 -11
-12 -12 -13 -13 -13 -13 -13 -13 -13 -13 -13 -15 -14 -13 -13 -13 -13 -13 -13 -13 -13 -12 -12 -12 -12 -12 -11 -11 -11 -11 -11 -11 -11 -11 -11 -11 -12 -12 -11 -11 -10 -11 -11
-12 -13 -13 -13 -13 -13 -13 -13 -13 -13 -13 -13 -14 -14 -13 -13 -13 -13 -13 -13 -13 -13 -12 -12 -12 -12 -12 -12 -12 -12 -12 -12 -11 -11 -11 -11 -11 -11 -11 -12 -11 -11 -11
-12 -13 -13 -13 -13 -13 -13 -13 -13 -13 -13 -13 -14 -14 -14 -14 -14 -13 -13 -13 -13 -13 -13 -13 -12 -12 -12 -12 -12 -12 -12 -12 -12 -12 -12 -11 -11 -12 -12 -11 -11 -11 -11
-12 -12 -13 -13 -13 -13 -13 -13 -13 -13 -13 -13 -13 -14 -14 -14 -14 -14 -13 -13 -13 -14 -13 -13 -13 -12 -12 -12 -12 -12 -12 -12 -12 -12 -12 -12 -12 -12 -11 -11 -11 -11 -11
-12 -12 -13 -13 -13 -13 -12 -13 -13 -13 -13 -13 -13 -14 -13 -14 -13 -13 -13 -13 -14 -15 -14 -13 -13 -13 -12 -12 -12 -12 -12 -12 -12 -12 -12 -12 -12 -13 -12 -11 -11 -11 -12
-12 -12 -12 -12 -12 -12 -12 -12 -13 -13 -13 -13 -13 -13 -13 -13 -13 -13 -13 -13 -14 -15 -14 -14 -13 -13 -13 -13 -13 -13 -13 -12 -12 -12 -13 -12 -13 -13 -13 -12 -12 -12 -12
-12 -12 -12 -12 -12 -12 -12 -12 -12 -13 -12 -13 -13 -12 -12 -12 -13 -13 -13 -13 -14 -14 -14 -14 -13 -13 -13 -13 -13 -13 -13 -12 -13 -13 -13 -13 -13 -13 -13 -13 -13 -13 -13
-12 -12 -12 -12 -12 -12 -12 -13 -12 -12 -12 -12 -12 -12 -12 -12 -12 -13 -13 -13 -13 -13 -13 -13 -13 -13 -13 -13 -13 -13 -13 -13 -13 -13 -13 -13 -13 -13 -13 -13 -13 -13 -13
-12 -12 -12 -12 -12 -12 -12 -13 -12 -13 -12 -13 -13 -13 -13 -13 -13 -13 -13 -13 -13 -13 -13 -13 -13 -13 -13 -12 -12 -13 -13 -13 -13 -13 -13 -13 -13 -13 -13 -13 -13 -13 -13
-12 -12 -12 -12 -12 -12 -12 -12 -13 -13 -12 -12 -13 -13 -14 -13 -13 -13 -13 -13 -13 -13 -13 -13 -13 -13 -13 -13 -13 -13 -13 -13 -13 -13 -13 -13 -13 -13 -13 -13 -13 -13 -13
-11 -12 -12 -12 -12 -12 -12 -12 -13 -13 -13 -13 -13 -13 -13 -13 -14 -13 -13 -13 -13 -14 -14 -13 -13 -13 -13 -13 -13 -13 -13 -14 -14 -14 -14 -13 -13 -13 -13 -13 -13 -13 -13
-11 -12 -12 -12 -12 -12 -12 -12 -13 -13 -13 -13 -13 -13 -14 -14 -14 -13 -13 -13 -13 -13 -13 -13 -13 -13 -13 -13 -13 -14 -14 -14 -14 -14 -14 -14 -14 -13 -13 -13 -13 -13 -13
-11 -12 -12 -12 -12 -12 -12 -12 -12 -13 -13 -14 -13 -14 -14 -14 -13 -13 -13 -13 -13 -13 -13 -13 -13 -13 -14 -14 -14 -14 -14 -14 -14 -14 -14 -14 -14 -14 -14 -14 -14 -14 -13
-11 -12 -12 -12 -12 -12 -12 -12 -13 -13 -13 -13 -13 -14 -14 -13 -13 -13 -13 -13 -13 -13 -13 -13 -13 -13 -13 -14 -14 -14 -14 -14 -14 -15 -15 -15 -15 -14 -14 -15 -15 -15 -14
-11 -12 -12 -12 -12 -12 -12 -12 -13 -13 -13 -13 -13 -13 -14 -13 -13 -13 -13 -13 -13 -13 -13 -13 -14 -14 -14 -14 -14 -14 -15 -15 -15 -15 -15 -15 -15 -15 -15 -15 -15 -15 -15
-11 -12 -11 -12 -12 -12 -12 -12 -12 -13 -13 -13 -13 -13 -13 -13 -13 -13 -13 -13 -13 -13 -14 -14 -14 -14 -14 -14 -14 -15 -15 -15 -15 -15 -15 -15 -15 -15 -15 -15 -15 -15 -15
-12 -12 -12 -12 -12 -12 -12 -12 -12 -13 -13 -13 -13 -13 -13 -13 -13 -13 -14 -14 -13 -13 -14 -14 -14 -14 -14 -14 -14 -14 -15 -15 -15 -15 -15 -16 -16 -16 -16 -16 -16 -16 -16
-12 -12 -12 -12 -12 -12 -12 -12 -12 -13 -13 -13 -13 -13 -13 -13 -13 -14 -14 -14 -14 -14 -14 -14 -14 -15 -15 -15 -15 -15 -15 -15 -15 -16 -16 -16 -16 -16 -16 -16 -16 -17 -17
-12 -12 -12 -12 -13 -12 -12 -12 -12 -12 -13 -13 -13 -13 -13 -13 -14 -14 -14 -14 -14 -14 -14 -14 -15 -15 -15 -15 -15 -15 -16 -16 -16 -16 -16 -16 -16 -16 -16 -17 -17 -17 -17
-12 -12 -13 -13 -13 -13 -13 -13 -12 -12 -13 -13 -13 -13 -13 -14 -14 -14 -14 -14 -14 -14 -15 -15 -15 -15 -15 -16 -16 -16 -16 -16 -16 -16 -16 -17 -17 -17 -17 -17 -17 -17 -17
-12 -13 -13 -13 -13 -13 -13 -13 -13 -13 -13 -13 -13 -14 -14 -13 -14 -14 -14 -14 -14 -14 -15 -15 -15 -16 -15 -16 -16 -16 -17 -17 -16 -17 -17 -17 -17 -17 -17 -17 -17 -17 -17
-13 -13 -13 -13 -13 -13 -13 -14 -13 -13 -13 -13 -14 -14 -13 -14 -14 -14 -14 -14 -14 -14 -15 -15 -15 -16 -16 -16 -17 -17 -17 -17 -17 -17 -17 -17 -17 -17 -17 -17 -17 -17 -17
-13 -13 -13 -13 -13 -13 -13 -13 -13 -13 -14 -14 -14 -14 -13 -14 -14 -14 -14 -14 -14 -14 -14 -15 -15 -16 -16 -16 -17 -17 -18 -18 -18 -18 -18 -18 -18 -18 -18 -18 -18 -18 -18
-13 -13 -13 -13 -13 -13 -13 -13 -13 -14 -14 -14 -14 -14 -14 -14 -14 -14 -14 -14 -14 -14 -14 -15 -15 -16 -16 -17 -17 -18 -18 -18 -18 -19 -19 -19 -19 -19 -18 -18 -18 -18 -18
Height
5868 5865 5862 5860 5860 5859 5859 5858 5858 5857 5856 5855 5854 5852 5852 5851 5850 5850 5849 5849 5849 5848 5848 5848 5847 5846 5846 5847 5848 5848 5848 5846 5845 5843 5844 5844 5845 5845 5845 5845 5844 5844 5843
5869 5866 5863 5861 5859 5858 5858 5858 5859 5856 5855 5854 5853 5852 5851 5851 5851 5851 5850 5849 5848 5848 5847 5847 5846 5845 5845 5846 5847 5846 5845 5846 5845 5844 5844 5842 5842 5843 5843 5844 5843 5843 5843
5868 5865 5862 5860 5859 5859 5858 5858 5857 5855 5854 5852 5853 5852 5851 5851 5850 5849 5849 5848 5848 5847 5846 5845 5844 5845 5845 5846 5846 5846 5844 5843 5843 5843 5842 5842 5842 5842 5841 5841 5842 5842 5841
5866 5864 5861 5859 5858 5857 5856 5856 5855 5854 5853 5852 5851 5851 5850 5849 5848 5848 5848 5847 5846 5845 5844 5843 5842 5842 5842 5844 5844 5844 5843 5841 5842 5842 5841 5840 5840 5841 5841 5839 5839 5840 5839
5863 5861 5859 5857 5856 5855 5854 5853 5852 5851 5850 5850 5849 5849 5848 5847 5847 5846 5846 5845 5844 5843 5841 5841 5840 5840 5840 5840 5842 5842 5842 5840 5840 5839 5838 5838 5838 5838 5837 5837 5837 5837 5837
5863 5860 5857 5855 5855 5854 5852 5851 5850 5849 5848 5848 5847 5846 5846 5845 5844 5843 5842 5842 5841 5838 5838 5839 5838 5837 5836 5837 5838 5838 5838 5838 5836 5835 5835 5835 5834 5833 5833 5832 5832 5832 5832
5862 5858 5855 5854 5853 5852 5851 5848 5847 5846 5845 5845 5844 5843 5843 5842 5842 5841 5839 5838 5836 5835 5836 5836 5835 5834 5833 5833 5834 5834 5833 5833 5831 5829 5829 5829 5829 5828 5828 5828 5828 5827 5827
5859 5857 5855 5853 5851 5849 5848 5847 5846 5845 5844 5843 5842 5840 5840 5839 5839 5839 5838 5835 5834 5834 5834 5833 5833 5831 5830 5830 5829 5829 5829 5826 5825 5823 5822 5823 5823 5822 5822 5821 5822 5821 5821
5859 5857 5856 5854 5852 5849 5846 5845 5844 5844 5843 5842 5840 5837 5837 5837 5837 5837 5835 5834 5834 5833 5833 5832 5830 5828 5827 5826 5825 5825 5825 5823 5821 5818 5816 5816 5818 5818 5817 5816 5815 5815 5815
5859 5857 5855 5853 5851 5849 5848 5847 5844 5843 5842 5840 5840 5838 5838 5837 5837 5837 5835 5833 5833 5832 5831 5829 5828 5827 5825 5823 5822 5822 5821 5819 5817 5816 5814 5813 5813 5813 5813 5812 5810 5810 5811
5858 5857 5854 5852 5850 5848 5846 5846 5844 5843 5841 5840 5839 5838 5837 5837 5836 5835 5835 5834 5832 5830 5830 5827 5826 5825 5823 5821 5819 5818 5817 5815 5813 5812 5810 5809 5809 5808 5807 5806 5806 5805 5805
5857 5855 5854 5852 5848 5847 5845 5843 5842 5841 5839 5838 5837 5836 5837 5836 5836 5834 5832 5831 5830 5828 5827 5826 5823 5821 5819 5817 5815 5813 5811 5809 5808 5807 5805 5804 5802 5801 5800 5799 5799 5799 5798
5855 5854 5852 5850 5847 5845 5842 5840 5839 5839 5838 5837 5836 5835 5835 5834 5833 5832 5831 5829 5827 5826 5825 5822 5819 5817 5815 5812 5809 5808 5806 5804 5802 5800 5798 5797 5795 5794 5793 5794 5792 5792 5791
5854 5853 5852 5850 5848 5845 5841 5839 5837 5835 5835 5835 5835 5833 5834 5833 5832 5831 5830 5828 5827 5825 5822 5820 5818 5815 5812 5809 5806 5803 5801 5799 5797 5794 5792 5791 5789 5787 5786 5786 5785 5784 5783
5854 5852 5851 5849 5846 5843 5841 5838 5835 5834 5833 5833 5833 5833 5833 5832 5832 5831 5830 5828 5825 5823 5821 5818 5815 5812 5809 5806 5803 5798 5796 5794 5792 5789 5787 5784 5782 5781 5780 5778 5779 5777 5777
5853 5852 5850 5847 5845 5842 5842 5841 5836 5832 5831 5833 5832 5831 5831 5831 5830 5830 5829 5826 5824 5821 5819 5816 5812 5809 5805 5802 5798 5795 5791 5788 5785 5783 5781 5778 5775 5774 5772 5772 5771 5770 5771
5852 5850 5848 5844 5841 5840 5839 5840 5838 5834 5829 5829 5832 5831 5832 5831 5829 5827 5825 5822 5820 5816 5814 5811 5808 5805 5802 5799 5794 5790 5787 5784 5781 5777 5775 5772 5770 5768 5766 5765 5764 5764 5763
5850 5847 5846 5843 5840 5839 5837 5837 5837 5835 5833 5829 5829 5830 5830 5829 5827 5824 5822 5820 5817 5814 5810 5807 5804 5801 5797 5793 5790 5786 5783 5779 5776 5772 5769 5765 5764 5762 5760 5758 5757 5755 5755
5848 5846 5844 5842 5840 5838 5838 5836 5835 5835 5832 5829 5828 5828 5827 5826 5825 5822 5820 5817 5814 5811 5807 5803 5800 5796 5792 5788 5784 5780 5776 5772 5769 5765 5762 5760 5758 5756 5754 5752 5750 5749 5747
5846 5844 5843 5841 5839 5837 5835 5834 5834 5834 5832 5830 5827 5827 5825 5821 5820 5818 5815 5812 5809 5806 5802 5798 5795 5791 5787 5782 5778 5774 5770 5767 5763 5759 5755 5752 5750 5749 5747 5744 5742 5741 5740
5843 5842 5841 5840 5837 5834 5831 5830 5829 5828 5829 5827 5826 5823 5820 5818 5816 5814 5811 5808 5804 5801 5798 5793 5789 5785 5781 5777 5773 5768 5764 5760 5757 5753 5749 5745 5743 5741 5738 5736 5734 5733 5732
5840 5839 5838 5836 5834 5832 5830 5827 5826 5826 5825 5824 5822 5819 5817 5815 5812 5810 5807 5805 5801 5796 5792 5788 5784 5780 5776 5771 5767 5763 5758 5753 5749 5745 5741 5738 5736 5733 5730 5728 5726 5725 5724
5837 5835 5834 5832 5831 5829 5826 5825 5823 5822 5820 5819 5817 5815 5813 5811 5807 5805 5803 5800 5796 5792 5787 5783 5778 5772 5768 5764 5760 5756 5751 5747 5742 5737 5733 5730 5727 5725 5722 5719 5717 5716 5716
5833 5831 5831 5830 5828 5825 5822 5820 5818 5817 5815 5813 5812 5811 5807 5806 5804 5801 5799 5795 5792 5787 5783 5777 5772 5767 5761 5755 5751 5747 5743 5738 5733 5729 5724 5721 5718 5715 5712 5710 5708 5707 5706
5829 5827 5826 5825 5823 5820 5817 5815 5813 5811 5810 5807 5806 5804 5803 5802 5799 5797 5794 5789 5786 5781 5777 5772 5767 5761 5755 5750 5743 5737 5733 5728 5724 5719 5714 5710 5709 5706 5703 5701 5699 5698 5696
5824 5822 5821 5819 5818 5816 5813 5811 5809 5808 5807 5804 5802 5800 5799 5797 5795 5792 5788 5784 5779 5775 5770 5765 5760 5755 5749 5743 5737 5731 5726 5720 5714 5709 5705 5701 5697 5695 5693 5691 5689 5688 5686
Wind_Speed
15 16 15 11 13 6 10 10 12 14 14 13 13 13 13 11 8 8 7 7 8 9 10 11 11 11 11 10 8 7 7 6 5 4 5 6 6 7 7 8 8 8 8
12 12 12 11 10 12 4 3 9 9 8 11 11 11 13 14 13 12 11 11 12 12 13 14 13 13 13 11 10 9 12 12 10 8 7 6 7 7 7 9 7 7 8
11 12 13 14 14 14 13 9 7 11 12 6 9 12 14 16 16 15 15 15 15 15 16 17 16 16 16 14 13 12 14 15 15 14 14 14 13 11 10 11 12 10 10
14 14 14 15 17 16 17 15 15 15 13 12 9 10 16 16 16 17 17 18 18 18 19 20 20 19 18 16 15 15 16 17 16 17 17 18 19 17 17 12 12 15 14
16 15 14 13 14 15 16 16 17 14 10 12 12 13 15 19 19 18 17 18 21 23 23 22 22 22 21 20 18 19 18 19 19 20 20 19 19 17 16 17 16 21 21
18 17 16 12 11 13 15 16 17 12 8 11 13 15 15 17 17 15 19 19 29 24 24 23 22 23 24 22 21 21 22 23 24 23 23 23 20 23 21 22 22 22 24
15 17 16 12 9 13 15 14 13 7 7 10 13 15 16 17 17 17 20 21 20 18 18 20 22 23 22 21 22 23 27 28 28 29 27 25 24 21 23 23 25 28 27
17 16 14 11 9 13 11 10 10 8 7 12 12 14 16 17 16 16 14 13 14 16 16 17 21 24 27 27 27 27 26 28 30 33 33 30 27 27 25 21 22 27 28
16 13 14 12 10 11 7 8 11 10 13 11 11 9 6 7 7 6 7 7 10 12 16 21 24 27 29 26 23 22 20 17 19 20 26 29 29 26 21 15 14 14 18
15 10 12 13 10 13 10 13 7 6 8 9 6 2 6 3 4 6 5 6 8 12 12 13 13 17 18 19 19 20 19 18 18 19 18 18 19 20 19 17 16 16 17
11 8 11 14 13 13 10 12 10 10 12 12 10 4 8 7 6 7 7 12 12 13 15 13 15 16 18 20 23 24 24 24 24 25 24 24 24 25 26 24 23 24 25
13 10 12 19 18 16 14 16 13 14 12 12 7 5 5 8 11 11 9 10 12 14 16 18 19 20 22 23 25 26 26 26 26 25 25 26 27 27 28 29 29 28 30
13 10 12 14 14 13 15 15 11 11 11 11 10 7 4 8 8 12 11 12 14 15 16 18 20 21 22 23 24 25 26 26 25 25 26 27 27 26 27 28 30 30 31
14 12 14 12 12 17 18 16 11 12 10 10 9 8 8 7 10 10 12 12 14 16 19 21 20 22 24 25 27 27 26 26 26 25 25 26 27 27 28 28 28 30 32
11 11 9 8 12 14 16 16 12 12 7 5 9 9 11 7 8 10 10 13 15 17 19 21 22 23 26 27 27 27 27 27 26 26 27 28 28 27 26 26 24 25 25
10 9 6 8 13 13 12 14 11 8 6 6 7 8 5 7 10 11 12 14 16 19 22 23 25 27 29 30 30 28 28 29 29 28 28 28 29 29 28 25 24 24 21
9 8 11 10 12 12 11 12 12 9 3 2 5 5 5 8 9 11 14 17 20 22 25 27 26 27 28 27 28 27 27 27 28 29 30 29 28 28 29 28 26 24 24
9 9 12 11 9 10 11 12 11 11 7 3 3 5 8 10 12 15 18 21 23 24 26 26 27 28 28 28 27 27 28 29 28 27 28 29 28 28 29 29 29 29 28
10 10 11 11 9 10 12 12 13 11 9 6 6 6 8 13 16 19 22 23 23 25 26 26 27 29 30 30 31 31 31 31 31 32 31 29 28 28 29 30 30 30 31
11 12 13 14 13 12 12 13 13 13 12 11 9 9 12 15 19 22 22 21 23 24 25 27 28 29 30 31 32 33 34 34 33 33 32 31 31 30 30 30 30 30 31
14 13 15 16 16 16 15 15 15 13 15 13 13 14 16 17 20 24 20 20 22 24 26 28 31 32 32 32 31 31 33 35 36 35 34 33 31 32 32 31 31 30 30
17 16 16 16 15 17 16 15 16 16 18 17 17 18 19 20 23 22 22 22 23 25 28 30 32 35 36 36 35 34 33 34 36 36 35 34 33 32 33 34 33 31 29
18 19 19 18 19 20 18 18 16 17 20 21 20 19 21 22 22 19 22 23 25 28 31 34 36 38 40 40 38 37 35 34 37 39 38 37 35 34 33 33 34 33 32
19 19 19 22 22 22 18 17 19 19 21 21 21 21 21 21 19 21 23 25 28 31 35 38 40 40 41 41 40 37 36 36 40 42 41 39 37 37 35 34 34 33 33
20 19 20 23 23 21 19 19 21 19 21 21 22 20 18 19 21 23 25 27 30 33 37 41 43 43 42 42 42 39 38 41 43 43 43 41 39 38 38 37 35 35 34
21 20 21 23 23 21 20 19 20 20 21 21 19 18 19 22 22 24 26 29 32 35 38 41 43 44 45 44 43 41 41 43 44 43 41 40 41 38 38 38 38 37 36
Wind_Direction
352 3 24 20 17 17 6 7 350 340 331 324 324 319 312 308 297 289 281 269 254 245 243 238 239 241 240 244 247 261 271 273 266 274 281 301 312 311 314 317 310 322 337
347 360 18 10 2 2 7 341 340 321 317 319 308 302 296 290 292 294 288 278 269 266 260 254 249 248 249 255 260 267 276 287 291 291 286 279 281 290 293 292 300 304 315
349 9 18 7 355 350 357 2 313 321 319 267 292 299 296 288 284 280 279 277 273 267 265 266 262 262 264 266 270 275 279 283 286 293 299 305 304 302 293 279 280 284 299
355 11 13 7 360 349 337 336 340 341 329 322 282 267 291 288 278 278 278 279 275 272 270 267 268 265 266 270 271 273 275 279 282 283 286 293 299 305 306 293 286 292 288
356 2 6 2 355 347 350 339 335 320 313 291 299 280 279 283 284 277 279 277 279 274 268 267 269 271 271 271 272 275 278 280 282 280 281 282 287 292 293 285 282 276 283
355 355 355 348 346 334 329 331 326 313 308 306 307 294 289 290 290 284 270 283 290 258 268 273 275 275 277 280 284 284 283 282 280 277 278 279 281 284 276 273 273 273 279
351 355 346 335 329 323 318 339 322 282 301 313 306 299 291 287 291 286 291 298 294 272 266 269 275 277 281 288 293 294 292 285 282 279 277 277 279 281 281 279 271 270 269
358 0 3 11 336 305 315 318 311 287 313 324 312 311 296 278 283 296 300 294 279 268 272 273 275 279 284 289 295 298 296 285 280 278 276 274 276 285 281 276 279 274 273
353 350 355 342 343 0 330 314 307 296 304 310 319 318 304 291 278 280 283 299 298 293 285 285 287 289 287 285 291 290 296 303 298 289 280 278 283 277 282 279 272 270 275
3 6 15 11 13 13 7 342 323 324 331 315 5 21 3 355 326 312 313 319 307 303 302 303 294 294 297 296 292 294 302 309 310 309 306 295 286 282 281 280 279 277 269
345 7 10 360 341 344 340 342 316 319 314 322 302 261 344 339 315 333 295 295 294 295 297 301 295 292 294 292 292 292 293 295 298 297 297 293 289 286 286 283 277 273 268
338 342 332 347 339 333 324 325 319 317 316 307 281 260 318 330 341 327 318 315 316 314 311 303 298 301 300 298 295 294 295 296 294 292 288 287 286 283 282 282 277 274 274
326 312 331 332 349 350 341 334 321 326 319 305 297 330 315 319 328 315 327 337 333 325 319 315 320 320 317 313 310 307 303 300 298 296 293 289 285 282 278 277 278 278 275
320 326 335 337 346 349 346 339 322 312 299 296 277 310 319 322 312 321 335 337 331 331 328 325 326 323 320 318 317 311 307 303 300 296 293 290 287 285 282 279 278 276 273
314 326 321 323 336 353 350 340 329 326 317 297 286 289 319 301 323 331 333 330 330 328 321 317 317 318 319 321 318 314 310 306 304 303 299 297 295 292 287 283 278 277 278
319 312 312 326 358 0 5 352 1 356 353 312 300 297 289 311 316 331 332 332 334 328 323 322 321 322 322 320 318 315 311 308 306 302 299 297 294 290 287 284 281 280 282
307 316 330 349 6 3 354 341 342 351 20 319 317 322 310 303 319 332 331 329 326 325 325 325 323 321 317 315 312 312 311 309 305 302 297 293 291 292 291 289 283 279 279
305 318 321 336 351 338 342 340 328 333 327 312 317 333 330 325 326 327 327 324 322 323 325 324 323 320 319 319 317 314 314 312 309 303 297 294 293 289 287 287 286 283 277
302 310 308 316 325 322 323 325 323 312 313 314 311 314 318 318 324 327 323 320 321 320 320 320 318 318 319 319 317 314 312 312 311 309 304 298 292 289 289 287 282 278 277
296 304 301 308 310 309 307 308 311 311 304 299 303 304 310 321 326 324 316 317 318 318 318 317 318 320 321 320 318 314 311 308 309 307 305 301 299 295 291 287 282 275 272
288 294 298 297 301 298 301 308 296 299 299 300 301 302 307 316 316 315 314 313 311 314 315 319 321 322 322 321 318 316 311 307 304 304 303 302 300 299 296 290 286 282 274
286 295 299 298 299 298 298 296 291 290 290 289 290 295 302 304 305 310 309 308 307 312 314 316 318 319 321 321 321 317 312 307 304 301 300 299 299 298 296 291 286 282 278
284 291 296 295 302 300 293 292 288 281 279 279 286 296 300 300 301 304 303 305 312 316 318 319 319 321 322 323 323 320 319 312 306 302 299 298 297 298 297 293 288 283 277
279 284 288 291 302 302 296 293 286 288 285 286 294 297 298 296 298 299 299 311 316 321 321 321 321 322 323 324 324 319 318 313 308 305 300 298 296 296 297 296 293 287 280
273 278 284 294 302 298 295 296 293 294 289 289 290 291 288 293 295 299 308 315 318 320 320 319 320 320 322 322 323 321 317 314 311 308 304 300 296 294 296 296 294 290 285
274 276 284 293 300 296 295 293 289 289 285 283 282 285 289 291 298 305 310 314 317 317 317 318 319 320 321 321 322 320 319 314 312 307 303 300 297 295 297 297 296 293 287